Regional Weather Roundup
Issued by NWS

Home | Current Version | Previous Version | Graphics & Text | Print | Product List | Glossary On
Versions: 1 2 3 4 5 6 7 8 9 10 11 12 13 14 15 16 17 18 19 20 21 22 23 24 25 26 27 28 29 30 31 32 33 34 35 36 37 38 39 40 41 42 43 44 45 46 47 48 49 50
000
ASUS45 KTFX 111110
RWRMT
MONTANA REGIONAL WEATHER ROUNDUP
NATIONAL WEATHER SERVICE GREAT FALLS MT
400 AM MST THU FEB 11 2016

NOTE: "FAIR" INDICATES FEW OR NO CLOUDS BELOW 12000 FEET WITH NO
SIGNIFICANT WEATHER AND/OR OBSTRUCTIONS TO VISIBILITY.

MTZ001>007-043-111200-
WEST OF THE DIVIDE

CITY           SKY/WX    TMP DP  RH WIND       PRES   REMARKS
KALISPELL      CLOUDY    32  30  92 CALM      30.22R
MISSOULA       CLOUDY    34  30  85 CALM      30.27R
BUTTE          CLOUDY    23  18  81 NW7       30.20F WCI  15
MULLAN PASS    CLOUDY    32  31  96 VRB6      30.26R WCI  26
ANACONDA         N/A     43  25  49 SE8       30.20R
DEER LODGE       N/A     36  27  69 NE3       30.21R
HAMILTON         N/A     48  30  49 S8        30.24S
PLAINS           N/A     35  31  86 CALM      30.25R
$$

MTZ008-052>055-111200-
SOUTHWEST MONTANA

CITY           SKY/WX    TMP DP  RH WIND       PRES   REMARKS
BOZEMAN        CLOUDY    33  27  78 CALM      30.18S
DILLON         CLOUDY    33  24  69 SW24      30.21F WCI  20
ENNIS          CLEAR     36  23  60 S20       30.26S WCI  25
THREE FORKS      N/A     31  31 100 CALM      30.15R
TWIN BRIDGES     N/A     39  23  53 S7        30.18F
$$

MTZ009-010-012-014-046-048-049-054-111200-
EAST SLOPES AND CENTRAL MONTANA

CITY           SKY/WX    TMP DP  RH WIND       PRES   REMARKS
CUT BANK       CLEAR     43  27  53 W28G39    30.02R
GREAT FALLS    CLOUDY    38  27  64 SW14      30.08S WCI  30
MALMSTROM AFB  CLEAR     45  29  53 W12       30.09
HELENA         CLOUDY    36  29  75 CALM      30.17R
CHOTEAU          N/A     45  23  42 W13       30.11R
CONRAD           N/A     45  31  58 W17       30.09R
$$

MTZ011-013-016-021-045-047-050-051-111200-
NORTH CENTRAL MONTANA

CITY           SKY/WX    TMP DP  RH WIND       PRES   REMARKS
HAVRE          CLOUDY    29  28  96 W5        30.00R FOG
LEWISTOWN      PTCLDY    43  30  60 W18G24    30.03R
N BAR RANCH      N/A     46  28  49 NW24G32   30.00S
CHINOOK          N/A     32  30  93 CALM      30.00R
$$

MTZ017>020-022>027-061-062-111200-
NORTHEAST MONTANA

CITY           SKY/WX    TMP DP  RH WIND       PRES   REMARKS
GLASGOW        CLOUDY    29  25  85 E13       29.99S WCI  19
JORDAN           N/A     32  30  92 CALM      29.96F
SIDNEY         CLOUDY    28  25  86 E3        30.05F VSB 1/2
WOLF POINT     LGT SNOW  28  24  85 E13       30.03S FOG     WCI  17
PLENTYWOOD       N/A     23  21  93 E7        30.05F WCI  15
POPLAR           N/A     25  23  93 E10       30.03F VSB 1/2 WCI  15
SCOBEY           N/A     23  16  75 N5        30.00F VSB 0
$$

MTZ028>42-056>058-111200-
SOUTHCENTRAL AND SOUTHEAST MONTANA

CITY           SKY/WX    TMP DP  RH WIND       PRES   REMARKS
BAKER          CLOUDY    32  27  81 SE5       29.99F
BILLINGS       MOCLDY    46  22  38 W10       30.03R
LIVINGSTON     CLOUDY    48  21  34 SW22      30.14R
MILES CITY     CLOUDY    32  28  85 N5        29.97R
FORSYTH          N/A     34  30  86 CALM      29.98R
LAUREL           N/A     43  19  38 W1        30.01S
ROUNDUP          N/A     50  24  36 W14       29.91S
$$

REGIONAL REPORTS...DAKOTAS

CITY           SKY/WX    TMP DP  RH WIND       PRES   REMARKS
WILLISTON      LGT SNOW  26  23  88 CALM      30.07S FOG
MINOT          CLOUDY    15   6  67 NE6       30.14F WCI   6
DICKINSON      CLOUDY    25  22  88 SE7       30.00F FOG     WCI  17
BEACH          FLURRIES  28  28 100 SE7       30.03S WCI  21
CROSBY         LGT SNOW  18  18 100 E7        30.11F WCI   8
TIOGA          LGT SNOW  18  18 100 E6        30.11F WCI   9
WATFORD CITY   LGT SNOW  23  19  86 E8        30.06F WCI  14
BISMARCK       CLOUDY    19  12  74 SE7       30.15F WCI  10
GRAND FORKS    CLOUDY     3  -2  79 CALM      30.29S
FARGO          CLOUDY     2  -4  76 CALM      30.29S
BUFFALO SD       N/A     32  28  85 SW14      29.94F WCI  22
RAPID CITY     CLOUDY    28  27  96 SE9       30.01F FOG     WCI  19
$$

REGIONAL REPORTS...WYOMING/IDAHO/WASHINGTON

CITY           SKY/WX    TMP DP  RH WIND       PRES   REMARKS
GILLETTE       CLOUDY    43  24  47 W10       30.01S
SHERIDAN       CLOUDY    38  28  67 S3        30.00S
BUFFALO WY     CLOUDY    45  22  40 CALM      30.03F
CODY           CLOUDY    52  18  25 SW6       30.07F
YELLOWSTONE LA   N/A     22  18  85 CALM      30.33S
IDAHO FALLS    CLOUDY    17  14  88 NW5       30.39F
SALMON         CLOUDY    16  12  86 CALM      30.39F
BOISE          PTCLDY    31  29  92 CALM      30.40F FOG
SPOKANE        CLOUDY    32  31  96 N6        30.30R FOG     WCI  26
$$

REGIONAL REPORTS...ALBERTA

CITY           SKY/WX    TMP DP  RH WIND       PRES   REMARKS
EDMONTON       LGT SNOW  21  16  79 E7        30.08R WCI  13
CALGARY        FOG       28  28 100 NW3       30.00R VSB 1
LETHBRIDGE     CLEAR     23  23 100 NE7       30.01R FOG     WCI  15
MEDICINE HAT   CLOUDY    30  30 100 N7        30.00R WCI  23
WATERTON GATE    N/A     45  25  45 W18G26      N/A
CARDSTON         N/A     46  23  39 W16G25      N/A
ONEFOUR          N/A     28  28 100 W5          N/A
$$

REGIONAL REPORTS...SASKATCHEWAN

CITY           SKY/WX    TMP DP  RH WIND       PRES   REMARKS
SWIFT CURRENT  LGT SNOW  19  19 100 E13       30.01R WCI   7
REGINA         FLURRIES  14  10  85 E7        30.12F WCI   4
SASKATOON      CLOUDY    10   7  85 E10       30.20S WCI  -3
CYPRESS HILLS    N/A     28  27  93 W2          N/A
VAL MARIE        N/A     28  27  93 E3          N/A
ROCKGLEN         N/A     23  21  93 E1          N/A
ASSINIBOIA       N/A     18  16  93 E7          N/A  WCI   8
$$



USA.gov is the U.S. government's official web portal to all federal, state and local government web resources and services.